Simultaneous Nadir Overpasses (SNOs) Predictions

Prediction of SNOs between NOAA-20 and METOP-C Satellite Orbit:

Table of predicted SNOs for the next 14.0 days since TLE Epoch: 12/22/2018
Index Date (NOAA-20) Time (NOAA-20) Lat,Lon (NOAA-20) SZA (NOAA-20 ) Date (METOP-C) Time (METOP-C) Lat,Lon (METOP-C) SZA (METOP-C ) Distance(km) Time Diff (sec)
1 12/22/2018 03:28:52 72.66, 119.63 96.14 12/22/2018 03:27:48 72.63, 119.63 96.13 2.97 64
2 12/22/2018 04:19:36 -72.66, -73.07 83.86 12/22/2018 04:18:29 -72.67, -72.97 83.85 3.22 67
3 12/22/2018 05:10:21 72.61, 94.36 96.09 12/22/2018 05:09:10 72.61, 94.25 96.11 3.46 71
4 12/22/2018 06:01:05 -72.61, -98.34 83.91 12/22/2018 05:59:51 -72.65, -98.35 83.86 3.52 74
5 12/22/2018 06:51:48 72.46, 69.29 95.93 12/22/2018 06:50:35 72.44, 68.56 95.95 24.37 73
6 12/22/2018 07:42:30 -72.36,-123.21 84.18 12/22/2018 07:41:18 -72.37,-124.24 84.12 34.78 72
7 12/22/2018 08:33:12 72.15, 44.51 95.61 12/22/2018 08:32:03 72.11, 42.58 95.65 66.03 69
8 12/22/2018 09:23:54 -72.06,-147.99 84.50 12/22/2018 09:22:46 -72.05,-150.21 84.41 76.17 68




NCC Satellite Simultaneous Nadir Overpasses (SNOs) Prediction Service
